Tanana, AK

1:06 AM AKDT on May 30, 2017 (GMT -0800)
Calhoun Memorial

Weather History for PATA - February, 2012

Change the Weather History Date:

Wednesday, February 29, 2012

  Actual Average Record
Temperature  
Mean Temperature -6 °F -  
Max Temperature -2 °F - 36 °F (1968)
Min Temperature -9 °F - -57 °F (1956)
Degree Days  
Heating Degree Days 70    
Moisture  
Dew Point -17 °F    
Average Humidity 60    
Maximum Humidity 65    
Minimum Humidity 54    
Precipitation  
Precipitation 0.00 in - - ()
Snow  
Snow 0.00 in - - ()
Snow Depth 27.00 in    
Sea Level Pressure  
Sea Level Pressure 30.05 in    
Wind  
Wind Speed 7 mph (East)    
Max Wind Speed 14 mph    
Max Gust Speed -    
Visibility 9 miles    
Events Snow    
Averages and records for this station are not official NWS values.
T = Trace of Precipitation, MM = Missing Value Source: NWS Daily Summary

Daily Weather History Graph

Daily Weather History Graph

Search for Another Location

Airport or City:

Trip Planner

Search our weather history database for the weather conditions in past years. The results will help you decide how hot, cold, wet, or windy it might be!

Date:

Astronomy

Feb. 29, 2012 Rise Set
Actual Time 8:19 AM AKST 6:23 PM AKST
Civil Twilight 7:29 AM AKST 7:13 PM AKST
Nautical Twilight 6:32 AM AKST 8:10 PM AKST
Astronomical Twilight 5:33 AM AKST 9:10 PM AKST
Moon 8:58 AM AKST (2/29) 4:37 AM AKST (2/29)
Length of Visible Light 11h 43m
Length of Day
10h 03m
Waxing Crescent, 48% of the Moon is Illuminated
Feb 29
Waxing Crescent
Feb 29
First Quarter
Mar 8
Full
Mar 14
Last Quarter
Mar 22
New

Hourly Weather History & Observations

Time (AKST) Temp. Windchill Dew Point Humidity Pressure Visibility Wind Dir Wind Speed Gust Speed Precip Events Conditions
12:52 AM -5.1 °F -17.6 °F -16.1 °F 59% 30.04 in 10.0 mi East 5.8 mph - N/A   Clear
1:52 AM -6.0 °F -23.6 °F -16.1 °F 62% 30.06 in 10.0 mi ESE 10.4 mph - N/A   Overcast
2:52 AM -7.1 °F -22.8 °F -16.1 °F 65% 30.06 in 10.0 mi East 8.1 mph - N/A   Overcast
3:52 AM -7.1 °F -23.9 °F -17.0 °F 62% 30.06 in 10.0 mi East 9.2 mph - N/A   Overcast
4:52 AM -7.1 °F -21.4 °F -17.0 °F 62% 30.07 in 10.0 mi East 6.9 mph - N/A   Overcast
5:52 AM -8.0 °F -28.8 °F -18.0 °F 61% 30.07 in 10.0 mi East 13.8 mph - N/A   Overcast
6:52 AM -8.0 °F -23.9 °F -18.0 °F 61% 30.08 in 10.0 mi East 8.1 mph - N/A   Overcast
7:52 AM -9.0 °F -28.4 °F -18.0 °F 65% 30.08 in 10.0 mi East 11.5 mph - N/A   Overcast
8:52 AM -9.0 °F -25.2 °F -18.9 °F 62% 30.08 in 10.0 mi East 8.1 mph - N/A   Overcast
9:52 AM -9.9 °F -19.2 °F -18.9 °F 65% 30.08 in 10.0 mi East 3.5 mph - N/A   Overcast
10:52 AM -9.0 °F -18.2 °F -18.9 °F 62% 30.08 in 10.0 mi Variable 3.5 mph - N/A   Clear
11:33 AM -7.6 °F - -18.4 °F 59% 30.06 in 1.8 mi Calm Calm - N/A   Clear
11:48 AM -7.6 °F - -18.4 °F 59% 30.06 in - Calm Calm - N/A Snow Light Snow
11:52 AM -7.1 °F - -18.0 °F 59% 30.09 in 0.5 mi Calm Calm - N/A Snow Snow
12:08 PM -7.6 °F -18.8 °F -18.4 °F 59% 30.06 in 10.0 mi Variable 4.6 mph - N/A   Mostly Cloudy
12:52 PM -5.1 °F -15.8 °F -17.0 °F 57% 30.08 in 10.0 mi Variable 4.6 mph - N/A   Mostly Cloudy
12:59 PM -5.8 °F -14.5 °F -16.6 °F 60% 30.05 in 0.2 mi ENE 3.5 mph - N/A   Clear
1:15 PM -5.8 °F - -16.6 °F 60% 30.04 in 10.0 mi Calm Calm - N/A   Mostly Cloudy
1:52 PM -5.1 °F -22.5 °F -16.1 °F 59% 30.06 in 10.0 mi ESE 10.4 mph - N/A   Mostly Cloudy
2:52 PM -4.0 °F -22.1 °F -17.0 °F 54% 30.06 in 10.0 mi ESE 11.5 mph - N/A   Mostly Cloudy
3:52 PM -2.9 °F -16.5 °F -16.1 °F 54% 30.05 in 10.0 mi ESE 6.9 mph - N/A   Mostly Cloudy
4:52 PM -2.9 °F -17.7 °F -16.1 °F 54% 30.05 in 10.0 mi East 8.1 mph - N/A   Overcast
5:52 PM -4.0 °F -23.7 °F -16.1 °F 56% 30.03 in 10.0 mi ESE 13.8 mph - N/A   Mostly Cloudy
6:52 PM -5.1 °F -23.5 °F -16.1 °F 59% 30.03 in 10.0 mi East 11.5 mph - N/A   Overcast
7:52 PM -6.0 °F -20.1 °F -17.0 °F 59% 30.02 in 10.0 mi East 6.9 mph - N/A   Partly Cloudy
8:52 PM -9.0 °F -22.3 °F -18.9 °F 62% 30.01 in 10.0 mi ENE 5.8 mph - N/A   Overcast
9:52 PM -8.0 °F -19.2 °F -18.0 °F 61% 29.99 in 10.0 mi NNE 4.6 mph - N/A   Overcast
10:52 PM -9.0 °F - -18.0 °F 65% 29.98 in 10.0 mi Calm Calm - N/A   Mostly Cloudy
11:52 PM -9.0 °F -18.2 °F -18.0 °F 65% 29.98 in 10.0 mi NNW 3.5 mph - N/A   Overcast